Showing default

ICEYE-X43, 60539

Orbit data source: Space-Track

ICEYE-X43, 60539 is a Brazilian payload satellite in SSO that was launched on Fri, 16 Aug 2024 UTC via an FALCON 9 launch vehicle from the Air Force Western Test Range (AFWTR). Payload-class satellites include a variety of spacecraft equipped with specific instruments for various scientific and technological missions. These include communications satellites like Starlink; space stations such as the ISS; scientific satellites like the Hubble; Earth observation satellites from companies like Planet Labs, Umbra, and HawkEye 360; GPS; miniature CubeSats for education and research; and military/defense satellites.

Loading next visibility...
Identifier
60539, 2024-149BZ
Orbit
SSO
Country
Flag of BRBR / BRAZ
Related business
Manufacturer
ICEYE
Mission
Operational Commercial Radar Imaging
Bus & Motor
ICEYE, Unknown motor
Mass
80 kg wet, 80 kg dry
Launch date (UTC)
2024-08-16 (2 years ago)
Launch vehicle
FALCON 9
Launch site
Air Force Western Test Range (AFWTR)
Object type
Payload
Rocket body
Debris
Shape & HBR
Box + 1 Pan, 1.4 m
Radar Cross Section
0.776 m², Medium (>0.1 m² and < 1m²)

Expand to show TLE details & history
Last TLE update: 13 hours ago

TLE from 13 hours ago
0 ICEYE-X43
1 60539U 24149BZ  26129.46443521  .00001975  00000-0  16467-3 0  9991
2 60539  97.6771 206.9640 0004076 211.7025 148.3953 14.99735139 94315
Epoch: 2026-05-09T11:08Z
TLE epoch observation values (Epoch: 2026-05-09T11:08:47.202Z)
Latitude
-0.00005°
Longitude
172.48584°
Altitude
573.181 km
Speed
7.573 km/s
True Right ascension
13h 47m 51s
True Declination
0° 00' 00"
Sunlit
Object was in full shadow at epoch
Visualization orbit readout
Latitude
Unknown
Longitude
Unknown
Altitude
Unknown
Speed
Unknown
Apparent Right ascension
Unknown
Apparent Declination
Unknown
Sunlit
N/A
Visualization observer readout
Local Sidereal Time
07:49:51
Azimuth
Unknown
Elevation
Unknown
Doppler factor
Unknown
Orbital elements
Apogee altitude
567.549 km
Perigee altitude
561.889 km
Semi-major axis
6,942.856 km
Eccentricity
0.00041
Inclination
97.6771°
RAAN
206.964°
Arg. of periapsis
211.7025°
True anomaly
148.41977°
Mean anomaly
148.3953°
Eccentric anomaly
148.40753°
Mean motion
3.75177 °/min
Orbital period
95.95 mins
BSTAR
0.00016467
Loading maneuver chart data...
Computing Atmospheric mass density...
Loading historical data...
Loading historical data...
Loading historical data...
Loading historical data...
Loading historical data...
Loading historical data...
Loading historical data...

Documentation

Showing up to 5 results
|